HISPASAT 30W-5

Last updated on Sun Mar 15 2026 00:02:53 GMT+0000 (Coordinated Universal Time)

1 37264U 10070A 26073.41987754 -.00000217 00000+0 00000+0 0 9992 2 37264 0.0309 121.0339 0003574 258.1140 274.0458 1.00271427 52231
UTC large
Height (km)
Speed (km/s)
/
Latitude / Longitude
Inclination (degrees)
Orbital Period (minutes)
Azimuth
Elevation
Range (km)
Doppler Factor

Next 0 passes for location: London (51.5072 / 0.1276)

Sorry there are no passes over London.